Preview of NWS' New Version of Forecast
This preview is not operational and should not be used for support decisions.

Regional Weather Roundup (RWR)

Issued by National Weather Service (NWS)

                            
000
ASUS45 KBOI 231910
RWRID 

IDAHO REGIONAL WEATHER ROUNDUP
NATIONAL WEATHER SERVICE BOISE ID
100 PM MDT SUN JUN 23 2019

NOTE: "FAIR" INDICATES FEW OR NO CLOUDS BELOW 12000 FEET
WITH NO SIGNIFICANT WEATHER AND/OR OBSTRUCTIONS TO VISIBILITY

IDZ012-014-232000-
SOUTHWEST IDAHO

  
CITY           SKY/WX    TMP DP  RH WIND       PRES   REMARKS
BOISE          SUNNY     71  33  24 W8G22     30.02F                  
CALDWELL       SUNNY     73  42  32 NW8       30.01F                  
MOUNTAIN HOME  MOSUNNY   77  37  24 W15G21    30.00F                  
$$

IDZ016-017-232000-
SOUTHCENTRAL IDAHO

  
CITY           SKY/WX    TMP DP  RH WIND       PRES   REMARKS
BURLEY         SUNNY     74  35  24 W14G23    30.01F                  
JEROME         SUNNY     75  37  25 W16G24    30.04S                  
TWIN FALLS     SUNNY     75  35  23 NW17G24   30.04S                  
$$

IDZ019>023-232000-
SOUTHEAST IDAHO

  
CITY           SKY/WX    TMP DP  RH WIND       PRES   REMARKS
IDAHO FALLS    MOSUNNY   69  37  30 SW17G23   30.05F                  
POCATELLO      PTSUNNY   71  33  24 W17       30.05F                  
REXBURG        PTSUNNY   67  40  37 SW13G18   30.04F                  
$$

IDZ006-010-011-018-031-032-232000-
CENTRAL IDAHO MOUNTAINS

  
CITY           SKY/WX    TMP DP  RH WIND       PRES   REMARKS
MCCALL         SUNNY     65  35  33 SW13G18   30.03S                  
HAILEY         MOSUNNY   66  39  37 S10G22    30.05F                  
STANLEY          N/A     62  31  31 MISG      30.07F                  
SALMON         CLOUDY    63  39  41 NW5       29.98F                  
CHALLIS        CLOUDY    72  33  24 W13G20    29.96F                  
$$

IDZ002-004-006-007-026-232000-
NORTHERN IDAHO

  
CITY           SKY/WX    TMP DP  RH WIND       PRES   REMARKS
LEWISTON       PTSUNNY   73  40  30 NW9G22    29.99F                  
LOWELL           N/A     68  49  50 CALM      30.00S                  
COEUR D'ALENE  CLOUDY    59  46  62 SW6       30.02S                  
MULLAN PASS    CLOUDY    44  37  76 VRB5      30.06S                  
$$